Hlavní strana
METAR-TAF:

METAR-TAF

Letiště :

Millington, Tennessee, Spojené státy americké

zeměpisná šířka: 35-21-24N, zeměpisná délka: 089-52-13W, výška: 98 m

Aktuální stav počasí

Zpráva byla vytvořena před 23 minutami, v 01:50 UTC
Bezvětří
Teplota 8°C
Vlhkost vzduchu 93%
Tlak 1015 hPa
Viditelnost: 16.1 km
Oblačno až skoro zataženo ve výšce 2800 ft
Zataženo ve výšce 3800 ft

METAR: KNQA 260150Z 00000KT 10SM BKN028 OVC038 08/07 A2996

Čas: 20:13 (02:13 UTC)


TAF: chybějící

Stav a předpovědi počasí z více než 4 000 letišť (zprávy METAR a TAF).

Červené a žluté tečky na mapě představují dostupné meteorologické stanice.

Když kurzor umístíte na tečku, zobrazí se název stanice.

Pak kliknutím zobrazíte stav a předpověď počasí.

Chcete-li změnit mapu, kliknutím na zelené tlačítko se znaménkem +mapu přiblížíte, kliknutím na zelené tlačítko se znaménkem – mapu oddálíte a kliknutím na zelené šipky přejdete na sousední mapy.


METAR-TAF: